Location: Howell Woods
(35.3600°N, 78.2900°W)
Time: 11:39:11
(UTC-05:00)

ISS - Visible Passes

Search period start: 03 December 2021 00:00
Search period end: 13 December 2021 00:00
Orbit: 417 x 423 km, 51.6° (Epoch: 03 December)

Date Brightness Start Highest point End Pass type
(mag) Time Alt. Az. Time Alt. Az. Time Alt. Az.
04 Dec -1.9 18:15:17 10° NNW 18:17:11 18° NNE 18:17:11 18° NNE visible
05 Dec -1.6 17:28:38 10° N 17:30:17 13° NNE 17:31:56 10° NE visible
05 Dec -1.5 19:04:09 10° NW 19:05:26 21° NW 19:05:26 21° NW visible
06 Dec -3.5 18:17:00 10° NW 18:20:17 46° NE 18:20:57 39° ENE visible
07 Dec -2.7 17:29:58 10° NNW 17:32:57 28° NE 17:35:55 10° E visible
07 Dec -1.7 19:06:50 10° WNW 19:09:43 26° SW 19:09:55 25° SW visible
08 Dec -2.8 18:19:17 10° WNW 18:22:34 48° SW 18:25:50 10° SSE visible
09 Dec -3.8 17:31:58 10° NW 17:35:22 88° NE 17:38:44 10° SE visible
10 Dec -0.5 18:22:47 10° W 18:24:37 14° SW 18:26:26 10° SSW visible
11 Dec -1.1 17:34:41 10° WNW 17:37:31 25° SW 17:40:21 10° S visible
